Back to catalog

SL-12 DEB

LostHEO
NORAD 35084·DEBRIS·🇷🇺 Russia

Launched Apr 4, 1991 from Baikonur Cosmodrome

Loading…

Next Passes (next 24 hours)

TLE

StaleSource: Space-Track

Epoch: Jul 8, 2014, 23:05 UTC

1 35084U 91025AE  14189.96226403 +.00000003 +00000-0 +10000-3 0  9999
2 35084 074.1425 023.0544 5034394 070.9529 336.9925 04.44184140083179

Track SL-12 DEB in real time with AllMySat

Download on the App Store